TimeEST,TemperatureF,Dew PointF,Humidity,Sea Level PressureIn,VisibilityMPH,Wind Direction,Wind SpeedMPH,Gust SpeedMPH,PrecipitationIn,Events,Conditions,WindDirDegrees,DateUTC
12:15 AM,32.0,30.2,93,29.59,5.0,SW,6.9,-,N/A,Snow,Light Snow,230,2013-02-28 05:15:00
12:35 AM,32.0,30.2,93,29.59,5.0,SW,5.8,-,N/A,Snow,Light Snow,230,2013-02-28 05:35:00
12:55 AM,32.0,30.2,93,29.58,4.0,WSW,5.8,-,N/A,Snow,Light Snow,240,2013-02-28 05:55:00
1:15 AM,32.0,30.2,93,29.59,4.0,WSW,6.9,-,N/A,Snow,Light Snow,240,2013-02-28 06:15:00
1:35 AM,32.0,30.2,93,29.59,3.0,WSW,5.8,-,N/A,Snow,Light Snow,240,2013-02-28 06:35:00
1:55 AM,32.0,30.2,93,29.60,2.0,WSW,5.8,-,N/A,Snow,Light Snow,240,2013-02-28 06:55:00
2:15 AM,32.0,32.0,100,29.60,2.0,WSW,5.8,-,N/A,Snow,Light Snow,250,2013-02-28 07:15:00
2:35 AM,32.0,32.0,100,29.60,2.5,West,6.9,-,N/A,Snow,Light Snow,260,2013-02-28 07:35:00
2:55 AM,32.0,32.0,100,29.60,3.0,West,5.8,-,N/A,Snow,Light Snow,260,2013-02-28 07:55:00
3:15 AM,32.0,32.0,100,29.59,2.5,West,5.8,-,N/A,Snow,Light Snow,270,2013-02-28 08:15:00
3:35 AM,32.0,32.0,100,29.59,1.2,West,8.1,-,N/A,Snow,Light Snow,280,2013-02-28 08:35:00
3:55 AM,32.0,32.0,100,29.60,2.0,WNW,5.8,-,N/A,Snow,Light Snow,290,2013-02-28 08:55:00
4:15 AM,32.0,32.0,100,29.60,2.5,WNW,6.9,-,N/A,Snow,Light Snow,290,2013-02-28 09:15:00
4:35 AM,32.0,32.0,100,29.61,3.0,WNW,6.9,-,N/A,Snow,Light Snow,300,2013-02-28 09:35:00
4:55 AM,33.8,32.0,93,29.62,5.0,WNW,6.9,-,N/A,,Overcast,290,2013-02-28 09:55:00
5:15 AM,33.8,32.0,93,29.62,4.0,WNW,8.1,-,N/A,Rain,Light Rain,300,2013-02-28 10:15:00
5:35 AM,33.8,32.0,93,29.63,5.0,WNW,8.1,-,N/A,Snow,Light Snow,290,2013-02-28 10:35:00
5:55 AM,33.8,32.0,93,29.64,7.0,WNW,6.9,-,N/A,,Overcast,300,2013-02-28 10:55:00
6:15 AM,33.8,32.0,93,29.64,10.0,NW,6.9,-,N/A,,Overcast,310,2013-02-28 11:15:00
6:35 AM,33.8,32.0,93,29.64,10.0,NW,9.2,-,N/A,,Light Drizzle,310,2013-02-28 11:35:00
6:55 AM,33.8,32.0,93,29.65,10.0,NW,6.9,-,N/A,,Overcast,320,2013-02-28 11:55:00
7:15 AM,33.8,32.0,93,29.67,7.0,NW,6.9,-,N/A,,Overcast,320,2013-02-28 12:15:00
7:35 AM,33.8,32.0,93,29.67,2.0,NW,6.9,-,N/A,Snow,Light Snow,310,2013-02-28 12:35:00
7:55 AM,33.8,32.0,93,29.68,4.0,NW,6.9,-,N/A,Snow,Light Snow,320,2013-02-28 12:55:00
8:15 AM,33.8,32.0,93,29.69,10.0,NW,6.9,-,N/A,,Overcast,320,2013-02-28 13:15:00
8:35 AM,33.8,32.0,93,29.70,10.0,NNW,8.1,-,N/A,,Overcast,330,2013-02-28 13:35:00
8:55 AM,33.8,30.2,87,29.71,7.0,NW,8.1,-,N/A,,Overcast,320,2013-02-28 13:55:00
9:15 AM,33.8,30.2,87,29.72,10.0,NW,6.9,-,N/A,,Overcast,320,2013-02-28 14:15:00
9:35 AM,33.8,30.2,87,29.72,10.0,NNW,6.9,-,N/A,,Overcast,340,2013-02-28 14:35:00
9:55 AM,33.8,30.2,87,29.73,10.0,NNW,8.1,-,N/A,,Overcast,330,2013-02-28 14:55:00
10:15 AM,33.8,30.2,87,29.74,7.0,NNW,8.1,-,N/A,Snow,Light Snow,330,2013-02-28 15:15:00
10:35 AM,33.8,32.0,93,29.74,10.0,NNW,12.7,-,N/A,,Overcast,330,2013-02-28 15:35:00
10:55 AM,35.6,32.0,87,29.75,10.0,NNW,8.1,-,N/A,,Overcast,330,2013-02-28 15:55:00
11:15 AM,35.6,32.0,87,29.76,10.0,NNW,9.2,16.1,N/A,,Overcast,330,2013-02-28 16:15:00
11:35 AM,35.6,30.2,81,29.77,10.0,NW,9.2,-,N/A,,Overcast,320,2013-02-28 16:35:00
11:55 AM,35.6,32.0,87,29.78,10.0,NNW,9.2,-,N/A,,Overcast,330,2013-02-28 16:55:00
12:15 PM,35.6,32.0,87,29.79,10.0,NNW,8.1,-,N/A,,Overcast,340,2013-02-28 17:15:00
12:35 PM,35.6,32.0,87,29.79,10.0,NW,8.1,-,N/A,,Overcast,320,2013-02-28 17:35:00
12:55 PM,35.6,32.0,87,29.79,10.0,NW,8.1,-,N/A,,Overcast,320,2013-02-28 17:55:00
1:15 PM,35.6,32.0,87,29.79,10.0,NW,10.4,-,N/A,,Overcast,310,2013-02-28 18:15:00
1:55 PM,35.6,30.2,81,29.79,10.0,NW,13.8,18.4,N/A,,Overcast,320,2013-02-28 18:55:00
2:15 PM,35.6,30.2,81,29.80,10.0,NW,9.2,-,N/A,,Overcast,310,2013-02-28 19:15:00
2:35 PM,35.6,30.2,81,29.80,10.0,NNW,8.1,-,N/A,,Overcast,330,2013-02-28 19:35:00
2:55 PM,35.6,30.2,81,29.81,10.0,NW,6.9,-,N/A,,Overcast,320,2013-02-28 19:55:00
3:15 PM,35.6,30.2,81,29.81,10.0,NW,8.1,-,N/A,,Overcast,320,2013-02-28 20:15:00
3:35 PM,35.6,30.2,81,29.82,10.0,NW,6.9,-,N/A,,Overcast,310,2013-02-28 20:35:00
3:55 PM,35.6,30.2,81,29.83,10.0,NW,8.1,-,N/A,,Overcast,310,2013-02-28 20:55:00
4:35 PM,35.6,30.2,81,29.84,10.0,NW,6.9,-,N/A,,Overcast,320,2013-02-28 21:35:00
4:55 PM,35.6,30.2,81,29.85,10.0,NW,6.9,-,N/A,,Overcast,320,2013-02-28 21:55:00
5:15 PM,35.6,30.2,81,29.86,10.0,NNW,5.8,-,N/A,,Overcast,330,2013-02-28 22:15:00
5:35 PM,35.6,30.2,81,29.87,10.0,NW,5.8,-,N/A,,Overcast,310,2013-02-28 22:35:00
5:55 PM,35.6,30.2,81,29.88,10.0,NW,3.5,-,N/A,,Overcast,310,2013-02-28 22:55:00
6:15 PM,35.6,30.2,81,29.88,10.0,NW,3.5,-,N/A,,Overcast,310,2013-02-28 23:15:00
6:35 PM,35.6,30.2,81,29.89,10.0,WNW,4.6,-,N/A,,Overcast,300,2013-02-28 23:35:00
6:55 PM,35.6,30.2,81,29.90,10.0,NW,3.5,-,N/A,,Overcast,310,2013-02-28 23:55:00
7:15 PM,35.6,30.2,81,29.91,10.0,WNW,3.5,-,N/A,,Overcast,300,2013-03-01 00:15:00
7:35 PM,35.6,30.2,81,29.91,10.0,NW,4.6,-,N/A,,Overcast,310,2013-03-01 00:35:00
7:55 PM,33.8,30.2,87,29.92,10.0,WNW,5.8,-,N/A,,Overcast,300,2013-03-01 00:55:00
8:15 PM,33.8,30.2,87,29.93,7.0,NW,4.6,-,N/A,Rain,Light Rain,310,2013-03-01 01:15:00
8:35 PM,33.8,32.0,93,29.93,5.0,NW,6.9,-,N/A,Rain,Light Rain,310,2013-03-01 01:35:00
8:55 PM,33.8,30.2,87,29.93,7.0,NW,6.9,-,N/A,Rain,Light Rain,310,2013-03-01 01:55:00
9:15 PM,33.8,32.0,93,29.94,5.0,NW,5.8,-,N/A,Rain,Light Rain,320,2013-03-01 02:15:00
9:55 PM,32.0,32.0,100,29.95,4.0,NW,5.8,-,N/A,,Light Drizzle,310,2013-03-01 02:55:00
10:15 PM,32.0,32.0,100,29.95,4.0,NW,4.6,-,N/A,,Light Drizzle,320,2013-03-01 03:15:00
10:35 PM,32.0,32.0,100,29.95,4.0,NNW,4.6,-,N/A,,Overcast,340,2013-03-01 03:35:00
10:55 PM,32.0,32.0,100,29.95,4.0,NNW,3.5,-,N/A,,Overcast,330,2013-03-01 03:55:00
11:15 PM,32.0,32.0,100,29.95,5.0,NNW,3.5,-,N/A,,Overcast,330,2013-03-01 04:15:00
11:35 PM,32.0,32.0,100,29.95,5.0,NNW,5.8,-,N/A,,Overcast,330,2013-03-01 04:35:00
11:55 PM,32.0,32.0,100,29.95,7.0,North,5.8,-,N/A,,Overcast,350,2013-03-01 04:55:00